www.pogodaiklimat.ru

Погода и климат >> Архив погоды >> Россия >> Забайкальский край >> Забайкальск


ПОГОДА в Забайкальске

  • Прогноз погоды в Забайкальске
  • Монитор погоды в Забайкальске
  • Климат города

АРХИВ ПОГОДЫ в Забайкальске

Время (UTC), дата Ветер
(напр.,м/с)
 
Видим.   Явления Облачность Т
(С)
Тd
(С)
f
(%)
Тe
(С)
Тes
(С)
Комфортность P
(гПа)
Po
(гПа)
Тmin
(С)
Tmax
(С)
R
(мм)
R24
(мм)
S
(см)
00 17.05 штиль 0
{8}
50 км 6/3 1000 м
[Cu hum Ci sp]
+14.5 -1.0 34 +15 +20 1010.2 931.0 +3.5
03 17.05 СВ 2 50 км 8/3 1000 м
[Cu hum Ci sp]
+19.8 -2.1 23 +20 +30 1007.8 930.2
06 17.05 СВ 1 50 км 6/5 600 м
[Cb calv Ci sp]
+20.7 -2.7 21 +22 +30 комфорт 1006.1 928.8
09 17.05 В 1 50 км 4/4 600 м
[]
+21.0 -1.2 23 +22 +25 комфорт 1004.4 927.4
12 17.05 ЮЗ 4
{7}
50 км 6 баллов +16.4 -5.4 22 +16 +16 1007.8 929.3 +23.0
15 17.05 С 1 20 км ясно +12.4 -0.9 40 +13 +13 1009.1 929.5
18 17.05 СЗ 3 20 км ясно +7.0 -4.0 45 +5 +5 1011.2 929.9
21 17.05 С 2 50 км 3/3 1000 м
[Sc]
+5.5 -4.4 49 +4 +4 1012.6 930.7
00 18.05 ЮВ 2
{7}
50 км 3/3 1000 м
[Cu hum]
+16.9 -3.6 24 +17 +22 1009.9 931.4 +3.5
03 18.05 З 3 50 км 3/3 1000 м
[Cu hum Ci fib]
+23.4 -3.1 17 +22 +31 комфорт 1007.1 930.4
06 18.05 ЮЗ 4 50 км 4/3 1000 м
[Cu hum Ci fib]
+26.0 -6.3 11 +23 +30 комфорт 1005.0 929.1
09 18.05 ЮЗ 3
{10}
50 км 6/3 1000 м
[Cu hum Ci fib]
+26.0 -5.2 12 +23 +26 комфорт 1004.1 928.3
12 18.05 ЮВ 2
{10}
50 км 4 балла +22.3 -4.7 16 +21 +21 комфорт 1006.2 929.3 +27.5
15 18.05 штиль 0 20 км ясно +15.1 -1.4 32 +15 +15 1006.5 927.8
18 18.05 З 5 20 км ясно +14.6 -1.2 34 +13 +13 1006.6 927.8
21 18.05 штиль 0 50 км 6/3 1000 м
[Sc Ci sp]
+14.6 +0.6 38 +15 +15 1006.8 928.0
00 19.05 Ю 9-10
{11}
50 км 4/0
[Ci sp]
+24.1 -4.7 14 +22 +23 комфорт 1004.5 928.1 +11.4
03 19.05 Ю 10
{15}
50 км 4 балла +27.8 -11.2 7 +24 +24 комфорт 1003.4 928.0
06 19.05 Ю 10
{11}
50 км 6 баллов +28.8 -4.6 11 +26 +26 жарко 1001.7 926.7
09 19.05 Ю 10
{18}
50 км 9 баллов +22.6 +1.6 25 +22 +22 комфорт 1001.7 925.3
12 19.05 Ю 11-13
{17}
50 км 9/6 600 м
[Cb cap Ci sp]
+20.9 +5.4 36 +21 +21 комфорт 1002.4 925.5 +30.0
15 19.05 З 7
{13}
10 км слабый ливневой дождь 10 баллов +15.4 +3.8 46 +14 +14 1008.0 929.3
18 19.05 Ю 5 20 км 10/10 600 м
[Cb cap]
+11.4 +0.8 48 +9 +9 1007.3 927.8
21 19.05 штиль 0 50 км в посл. час ливневой дождь 9/9 600 м
[Cb cap]
+13.2 +2.1 47 +13 +13 1008.1 928.9
00 20.05 В 5 50 км 8/3 600 м
[Cb calv Ci fib]
+17.2 +8.2 55 +17 +19 1008.5 930.4 +10.0 0.0
03 20.05 В 4 50 км 9/0
[Ci sp]
+20.1 +6.9 42 +21 +30 комфорт 1007.9 930.5
06 20.05 В 5 50 км 4/3 600 м
[Cb calv Ci sp]
+23.1 +6.1 33 +24 +29 комфорт 1006.5 930.0
09 20.05 В 5 50 км 4/3 600 м
[Cb calv Ci sp]
+24.0 +1.9 23 +23 +25 комфорт 1005.9 929.5
12 20.05 СВ 6
{8}
50 км 2 балла +22.0 +2.1 27 +22 +22 комфорт 1007.7 930.7 +25.5
15 20.05 В 3 20 км ясно +16.0 +6.4 53 +16 +16 1008.8 930.3
18 20.05 В 4 20 км ясно +14.1 +6.7 61 +13 +13 1007.8 928.9
21 20.05 В 6 50 км 10/10 600 м
[Cb cap]
+12.4 +7.7 73 +10 +10 1006.3 927.1
00 21.05 В 6-10
{12}
50 км 8/6 600 м
[Cb cap Ci sp]
+16.3 +8.3 59 +15 +16 1003.7 925.7 +12.2
03 21.05 ЮВ 5
{10}
50 км 9/9 600 м
[Cb cap]
+25.1 +10.2 39 +26 +27 жарко 999.2 923.8
06 21.05 Ю 9
{14}
50 км 10 баллов +27.2 +7.6 29 997.6 922.7
09 21.05 З 9
{14}
50 км в посл. час гроза 9 баллов +17.1 +11.1 68 +16 +16 1000.2 922.7
12 21.05 СЗ 13-17
{17}
10 км слабый ливневой дождь {гроза} 10/10 600 м
[Cb cap]
+6.0 +2.1 76 -1 -1 1003.5 922.6 +27.9 1
15 21.05 СЗ 12
{16}
20 км в посл. час ливневой дождь 10 баллов +2.8 +0.7 86 -5 -5 1006.0 924.0
18 21.05 З 10
{16}
20 км 9 баллов +2.7 +0.3 84 -5 -5 1007.4 925.3
21 21.05 З 9
{16}
50 км 9 баллов +1.5 -5.2 61 -5 -5 1009.4 926.7
00 22.05 З 9-11
{12}
50 км 5/1 1000 м
[Cu hum Ci sp]
+3.4 -6.0 50 -3 -2 1006.5 924.6 +0.3 4
03 22.05 З 7
{12}
50 км 5 баллов +7.1 -8.9 31 +3 +5 1003.4 922.7
06 22.05 ЮЗ 7
{12}
50 км 9 баллов +8.8 -13.6 19 +6 +6 1000.0 920.0
09 22.05 З 9
{19}
50 км 9 баллов +9.2 -12.6 20 +6 +6 998.4 918.7
12 22.05 ЮЗ 8-11
{13}
50 км 8/8 600 м
[Cb cap]
+5.6 -5.1 46 +1 +1 997.6 917.0 +9.7
15 22.05 З 5
{15}
20 км 8/8 600 м
[Cb cap]
+4.2 +0.8 79 -1 -1 996.3 915.5
18 22.05 З 4 20 км 4/4 600 м
[Cb cap]
+3.4 +0.8 83 -1 -1 995.2 914.3
21 22.05 ЮЗ 5 50 км 8/3 1000 м
[Sc Ci sp]
+2.4 -3.2 66 -3 -3 995.3 914.0
00 23.05 З 4
{15}
50 км 8/3 1000 м
[Sc Ci sp]
+7.2 -2.6 50 +4 +7 993.8 913.8 +2.0 0.9
03 23.05 ЮЗ 6 50 км 9/9 600 м
[Cb cap]
+11.1 -2.9 37 +9 +9 991.2 912.6
06 23.05 З 8
{12}
50 км 10/10 600 м
[Cb cap]
+12.7 +0.9 44 +10 +10 989.9 912.0
09 23.05 СЗ 10
{16}
50 км 7 баллов +15.3 -0.5 34 +13 +13 990.7 913.3
12 23.05 З 4
{14}
50 км 9/9 600 м
[Cb cap]
+12.4 +2.8 52 +11 +11 993.1 914.9 +15.5
15 23.05 СЗ 6 20 км 8/5 600 м
[Cb cap Ci sp]
+10.5 +3.2 61 +8 +8 994.6 915.8
18 23.05 З 4 20 км 5/3 1000 м
[Sc Ci sp]
+8.4 +5.4 81 +5 +5 996.4 916.9
21 23.05 З 3 50 км 4/3 1000 м
[Sc Ci sp]
+6.6 +5.1 90 +3 +4 998.9 918.7

 

Местоположение метеостанции Забайкальск (Забайкальский край, Россия): широта 49.63 долгота 117.30 высота над уровнем моря 694 м.

В архиве по умолчанию представлена погода в Забайкальске за последнюю неделю. Архивные данные за месяц целиком и за предыдущие месяцы, начиная с января 2011 года, Вы можете получить, выбрав интересующий диапазон дат из раскрывающегося списка и нажав кнопку "Ввод!".


*Определитесь, кто Вы:
робот инопланетянин человек

Внимание! Время в таблицах - всемирное. Для получения местного времени необходимо прибавить поправку, которая в Забайкальске равна 9 ч.

Смотрите также архив погоды в соседних городах и на ближайших метеорологических станциях:

Погода в Кайластуе (Забайкальский край, Россия) (75 км)
Погода в Борзе (Забайкальский край, Россия) (103 км)
Погода в Xin Barag Youqi (Китай) (113 км)
Погода в Соловьевске (Забайкальский край, Россия) (119 км)
Погода в Приаргунске (Забайкальский край, Россия) (149 км)
Погода в Александровском Заводе (Забайкальский край, Россия) (150 км)
Погода в Бырке (Забайкальский край, Россия) (154 км)
Погода в Hailar (Китай) (183 км)
Погода в Нижнем Цасучее (Забайкальский край, Россия) (184 км)
Погода в Оловянной (Забайкальский край, Россия) (195 км)

Пояснения к столбцам:

Ветер - указаны скорость ветра в м/с - средняя за 10 мин, порывы в срок и между сроками (в фигурных скобках) и направление, откуда дует ветер: С - северный, СВ - северо-восточный, В - восточный, ЮВ - юго-восточный, Ю - южный, ЮЗ - юго-западный, З - западный, СЗ - северо-западный.
Видимость - горизонтальная дальность видимости в метрах или километрах. При видимости от 1 до 10 км при отсутствии осадков обычно наблюдается дымка, при ухудшении видимости до 1 км и менее - туман. В сухую погоду видимость может ухудшаться дымом, пылью или мглою.
Явления - указаны атмосферные явления, наблюдавшиеся в срок или в последний час перед сроком; фигурными скобками обозначены явления, наблюдавшиеся между сроками (за 1-3 часа до срока); квадратными скобками обозначены град или гололедные отложения с указанием их диаметра в мм.
Облачность - указаны через наклонную черту общая и нижняя облачность в баллах и высота нижней границы облаков в метрах; квадратными скобками обозначены формы облаков: Ci - перистые, Cs - перисто-слоистые, Cc - перисто-кучевые, Ac - высококучевые, As - высокослоистые, Sc - слоисто-кучевые, Ns - слоисто-дождевые, Cu - кучевые, Cb - кучево-дождевые. Подробнее классификацию облаков см. в Атласе облаков (PDF).
T - Температура воздуха - температура, измеренная на высоте 2 м над землей.
Td - Температура точки росы - температура, при понижении до которой содержащийся в воздухе водяной пар достигнет насыщения.
f - Относительная влажность воздуха - влажноcть воздуха, измеренная на высоте 2 м над землей.
Te - Эффективная температура - температура, которую ощущает одетый по сезону человек в тени. Характеристика душности погоды. При расчете учитывается влияние влажности воздуха и скорости ветра на теплоощущения человека.
Tes - Эффективная температура на солнце - температура, которую ощущает человек, с поправкой на солнечный нагрев. Характеристика знойности погоды. Зависит от высоты солнца над горизонтом, облачности и скорости ветра. Ночью, в пасмурную погоду, а также при ветре 12 м/с и более поправка равна нулю.
P - Атмосферное давление - приведенное к уровню моря атмосферное давление.
Po - Атмосферное давление - измеренное на уровне метеостанции атмосферное давление.
Tmin - Минимальная температура - минимум температуры воздуха на высоте 2 м над землей.
Tmax - Максимальная температура - максимум температуры воздуха на высоте 2 м над землей.
R - Количество осадков - Количество выпавших осадков за период времени, мм. При наведении курсора мыши на число - период времени, за который выпало указанное количество осадков.
R24 - Количество осадков - Количество выпавших осадков за 24 часа, мм.
S - Снежный покров - Высота снежного покрова, см. При наведении курсора мыши на число - состояние снежного покрова и степень покрытия местности в баллах.